Regional Weather Roundup
Issued by NWS San Angelo, TX

Home | Current Version | Previous Version | Text Only | Print | Product List | Glossary On
Versions: 1 2 3 4 5 6 7 8 9 10 11 12 13 14 15 16 17 18 19 20 21 22 23 24 25 26 27 28 29 30 31 32 33 34 35 36 37 38 39 40 41 42 43 44 45 46 47 48 49 50
000
ASUS44 KSJT 242011
RWRSJT
WEST CENTRAL TEXAS REGIONAL WEATHER ROUNDUP
NATIONAL WEATHER SERVICE SAN ANGELO TX
300 PM CDT TUE MAY 24 2016

NOTE: "FAIR" INDICATES FEW OR NO CLOUDS BELOW 12,000 FEET WITH NO
SIGNIFICANT WEATHER AND/OR OBSTRUCTIONS TO VISIBILITY.

TXZ049-054-064>066-071>073-076>078-098-099-113-114-127-128-139-140-
154-155-168>170-242100
...LOCATIONS ACROSS WEST CENTRAL TEXAS...

CITY           SKY/WX    TMP DP  RH WIND       PRES   REMARKS
SAN ANGELO     MOSUNNY   85  70  60 S10G20    29.91S
ABILENE        CLOUDY    80  70  71 SE14      29.92S
DYESS AFB      CLOUDY    81  66  61 SE14      29.90F
JUNCTION       CLOUDY    81  71  71 S13       29.95F
SWEETWATER     PTSUNNY   84  69  60 SE14G24   29.94F
BROWNWOOD      CLOUDY    82  72  69 S17       29.93F
COLEMAN        CLOUDY    83  69  62 SE16G23   29.93F
SONORA           N/A     84  70  61 SW10G16   29.98S
OZONA          FAIR      88  64  45 S10       29.96F
BRADY          NOT AVBL
$$

TEXAS PANHANDLE/OKLAHOMA PANHANDLE

CITY           SKY/WX    TMP DP  RH WIND       PRES   REMARKS
AMARILLO       SUNNY     88  54  31 S18G30    29.87F
BORGER         SUNNY     91  59  33 S16G23    29.84F
CANADIAN       MOSUNNY   88  70  56 S18G26    29.82F
DALHART        SUNNY     87  33  14 S14G23    29.88F
DUMAS          CLEAR     89  49  24 S12       29.86F
GUYMON         NOT AVBL
HEREFORD       CLEAR     93  32  11 W17G25    29.89S
PAMPA          PTCLDY    86  66  51 S22G29    29.88F
PERRYTON       SUNNY     90  64  42 S16       29.84F
$$

SOUTHERN PANHANDLE/SOUTH PLAINS/ROLLING PLAINS

CITY           SKY/WX    TMP DP  RH WIND       PRES   REMARKS
LUBBOCK        PTSUNNY   86  65  49 S20       29.89F
SNYDER           N/A     84  69  61 S14       29.91F
CHILDRESS      PTSUNNY   86  70  58 S18       29.86F
SEMINOLE       CLEAR     93  25   8 W16G23    29.92F
$$

PERMIAN BASIN

CITY           SKY/WX    TMP DP  RH WIND       PRES   REMARKS
MIDLAND        SUNNY     98  35  11 SW10      29.88F
ODESSA         SUNNY     97  22   7 SW10G26   29.90F
WINK           SUNNY     95  23   7 MISG      29.87F
$$

FAR WEST/SOUTHWEST MOUNTAINS/TRANS PECOS

CITY           SKY/WX    TMP DP  RH WIND       PRES   REMARKS
ALPINE         CLOUDY    88  14   6 SW15G23   30.09S
DRYDEN         NOT AVBL
EL PASO        PTSUNNY   86  20   9 S10G22    29.99F
FORT STOCKTON  CLOUDY    93  25   8 W9        29.92F
GUADALUPE PASS NOT AVBL
MARFA          CLOUDY    85  20   9 W15       30.08F
PECOS          CLOUDY    95  18   6 SW14G20   29.88F
$$

DALLAS/FORT WORTH METROPLEX

CITY           SKY/WX    TMP DP  RH WIND       PRES   REMARKS
DFW AIRPORT    CLOUDY    82  71  69 SE15      29.93F
FTW MEACHAM    CLOUDY    87  70  56 S14G24    29.92F
DAL-EXECUTIVE  CLOUDY    83  72  69 SE17G24   29.94F
GRAND PRAIRIE  SUNNY     82  72  69 SE8       29.95F
ADDISON        CLOUDY    82  73  74 SE13      29.95F
MESQUITE         N/A     81  72  74 SE12      29.96F
LANCASTER      CLOUDY    81  70  68 SE10      29.96F
$$

NORTH CENTRAL TEXAS

CITY           SKY/WX    TMP DP  RH WIND       PRES   REMARKS
SHRMAN/DENISON CLOUDY    79  67  66 S15       29.96S
GAINESVILLE    CLOUDY    78  70  77 SE10      29.96F
BRIDGEPORT     NOT AVBL
DENTON         CLOUDY    82  72  71 SE10      29.93F
WAXAHACHIE     CLOUDY    82  73  74 SE13      29.95F
GRANBURY       CLOUDY    87  71  58 SE14G21   29.92F
$$

WESTERN NORTH TEXAS

CITY           SKY/WX    TMP DP  RH WIND       PRES   REMARKS
WICHITA FALLS  PTSUNNY   86  71  60 SE20G28   29.87F
VERNON         PTCLDY    89  64  43 S20       29.87S
BRECKENRIDGE   CLOUDY    86  68  55 S10G20    29.91S HAZE
COMANCHE       CLOUDY    84  71  66 S14G23    29.93F
$$

CENTRAL AND SOUTH CENTRAL TEXAS

CITY           SKY/WX    TMP DP  RH WIND       PRES   REMARKS
AUSTIN/BERGSTM CLOUDY    87  74  64 SE15      29.93F
WACO           CLOUDY    85  71  63 SE16      29.94F
HILLSBORO      CLOUDY    83  71  68 SE13      29.94F
TEMPLE         CLOUDY    86  73  65 S17       29.94F
KILLEEN-GRAY   PTSUNNY   84  72  66 SE15      29.93F
FORT HOOD      MOSUNNY   86  72  63 SE14G24   29.91F
GEORGETOWN     CLOUDY    86  72  62 SE13G18   29.93F
LAGO VISTA     CLOUDY    83  72  69 SE9       29.97F
SAN MARCOS     CLOUDY    82  75  78 SE12      29.95S
NEW BRAUNFELS  CLOUDY    84  74  71 SE9       29.93S
RANDOLPH AFB   PTSUNNY   86  77  74 SE12      29.93F
SAN ANTONIO    CLOUDY    83  74  74 SE15      29.94S
STINSON        CLOUDY    87  74  64 SE10      29.91S
PLEASANTON     NOT AVBL
LA GRANGE        N/A     88  77  69 SE10G17   29.93S HAZE
GIDDINGS       PTCLDY    87  73  62 S10G17    29.98F
$$

EAST TEXAS

CITY           SKY/WX    TMP DP  RH WIND       PRES   REMARKS
PARIS          PTSUNNY   82  66  57 S20       29.98F
CLARKSVILLE    NOT AVBL
TYLER          MOSUNNY   86  70  58 S10       29.98F
LONGVIEW       CLOUDY    83  72  69 SE8       29.99F
PALESTINE      PTCLDY    87  73  62 SE9G16    29.98F
NACOGDOCHES    MOSUNNY   86  73  66 SE9       29.99F
$$

TEXAS HILL COUNTRY AND EDWARDS PLATEAU

CITY           SKY/WX    TMP DP  RH WIND       PRES   REMARKS
LLANO          MOCLDY    82  72  69 S7G17     29.97F
HORSESHOE BAY  CLOUDY    84  72  66 S8G17     29.95F
KERRVILLE      LGT RAIN  76  74  93 SE10      29.98S
FREDERICKSBRG  CLOUDY    76  71  83 SE6       29.97F
ROCKSPRINGS    MOCLDY    81  73  78 SE14      30.00S
HONDO          CLOUDY    82  75  79 SE8       29.95S
UVALDE         HAZE      81  74  81 SE9       29.93S VSB 1
DEL RIO        MOSUNNY   90  73  57 E14       29.87F
$$

SOUTHEAST TEXAS

CITY           SKY/WX    TMP DP  RH WIND       PRES   REMARKS
COLLEGE STN    MOSUNNY   88  74  63 S16       29.95F
CALDWELL       MOCLDY    88  73  62 SE14      29.98F
CROCKETT       CLOUDY    90  72  55 S10       30.00F
BRENHAM        PTSUNNY   90  75  61 SE12G18   29.97S
HUNTSVILLE     MOSUNNY   88  73  61 VRB6      29.97F
CONROE         MOSUNNY   88  73  61 SE16      29.98F
HOUSTON BUSH   PTSUNNY   85  75  72 SE18      29.98F
HOUSTON HOBBY  CLOUDY    86  75  69 SE12      29.98S
PERLAND        PTSUNNY   87  75  67 SE10G21   30.01S
WHARTON        PTCLDY    88  75  66 SE16      29.97F
$$

THE UPPER TEXAS COAST

CITY           SKY/WX    TMP DP  RH WIND       PRES   REMARKS
ORANGE         CLOUDY    83  72  67 SE12G17   30.04F
PORT ARTHUR    PTSUNNY   86  75  69 SE15G23   30.01F
GALVESTON      CLOUDY    82  78  88 E14       30.01F
ANGLETON       MOSUNNY   85  75  72 SE13G22   29.99S
BAY CITY       MOCLDY    87  75  66 S13       29.97F
$$

TEXAS COASTAL BEND, RIO GRANDE PLAINS DEEP SOUTH TEXAS

CITY           SKY/WX    TMP DP  RH WIND       PRES   REMARKS
VICTORIA       PTSUNNY   86  76  71 SE14G23   29.95S
BEEVILLE       CLOUDY    87  78  75 SE15G22   29.91F
ROCKPORT       PTSUNNY   87  76  69 SE14      29.93S
PORT ARANSAS   CLOUDY    85  79  82 SE9G16    29.93S
PORT LAVACA    MOCLDY    84  78  80 E18       29.96S
CORPUS CHRISTI PTSUNNY   87  76  69 SE20G26   29.91S
KINGSVILLE NAS CLOUDY    90  81  74 SE17      29.88F
COTULLA        LGT RAIN  85  75  72 S5        29.89F
LAREDO         CLOUDY    89  77  67 E9        29.87F
BROWNSVILLE    MOSUNNY   88  77  69 S16       29.89F
PORT ISABEL    CLOUDY    90  77  65 SE18      29.88F
HEBBRONVILLE   CLOUDY    88  74  62 SE7       29.89S
MCALLEN        PTSUNNY   93  76  57 SE17      29.86F
WESLACO        CLOUDY    94  74  51 SE15G21   29.85F
FALFURRIAS     MOCLDY    91  75  58 SE13      29.86F
EDINBURG       MOCLDY    95  74  50 S18       29.86S
$$



USA.gov is the U.S. government's official web portal to all federal, state and local government web resources and services.